Location: Unnamed
(48.2382°N, 16.3826°E)
Time: 09:47:54
(UTC+02:00)

Falcon 9 debris - Pass Details

Date: 17 August 2020
Orbit: 426 x 434 km, 53.0° (Epoch: 23 September)

Event Time Altitude Azimuth Distance (km) Brightness Sun altitude
Rises 23:28:56 0° 296° (WNW) 2,414 ? -25.6°
Reaches altitude 10° 23:31:03 10° 296° (WNW) 1,544 ? -25.7°
Enters shadow 23:32:35 24° 296° (WNW) 939 ? -25.8°
